• In Uzbekistan
  • List of Countries
  • For 7 days
  • Water Temperature
  • Satellite Maps
  • Weather Map
  • Weather Widgets
  • user-avatar
    Login

    Hourly Weather Las Margaritas

    Today, 23 May, Wednesday

    Time Temperature Precipitation Wind Pressure Humidity
    00:00 +19°C° 0 mm 1 mps 635 mmHg 81%
    01:00 +19°C° 0 mm 1 mps 635 mmHg 82%
    02:00 +18°C° 0 mm 1 mps 635 mmHg 83%
    03:00 +18°C° 0 mm 1 mps 634 mmHg 84%
    04:00 +18°C° 0 mm 1 mps 635 mmHg 84%
    05:00 +16°C° 0 mm 0 mps 635 mmHg 84%
    06:00 +16°C° 0 mm 0 mps 635 mmHg 85%
    07:00 +18°C° 0 mm 0 mps 636 mmHg 76%
    08:00 +21°C° 0 mm 0 mps 637 mmHg 67%
    09:00 +25°C° 0 mm 1 mps 638 mmHg 59%
    10:00 +26°C° 0 mm 1 mps 638 mmHg 55%
    11:00 +27°C° 0 mm 1 mps 638 mmHg 51%
    12:00 +28°C° 0 mm 1 mps 638 mmHg 48%
    13:00 +28°C° 0.1 mm 1 mps 638 mmHg 49%
    14:00 +28°C° 0.1 mm 1 mps 637 mmHg 51%
    15:00 +28°C° 0.1 mm 1 mps 637 mmHg 52%
    16:00 +26°C° 0.5 mm 1 mps 636 mmHg 58%
    17:00 +25°C° 0.5 mm 1 mps 636 mmHg 65%
    18:00 +23°C° 0.5 mm 1 mps 636 mmHg 71%
    19:00 +22°C° 0.4 mm 1 mps 636 mmHg 74%
    20:00 +22°C° 0.4 mm 1 mps 636 mmHg 77%
    21:00 +21°C° 0.4 mm 1 mps 636 mmHg 80%
    22:00 +20°C° 0.2 mm 1 mps 636 mmHg 81%
    23:00 +20°C° 0.2 mm 1 mps 637 mmHg 82%

    Tomorrow, 24 May, Thursday

    Time Temperature Precipitation Wind Pressure Humidity
    00:00 +18°C° 0.2 mm 0 mps 637 mmHg 83%
    01:00 +18°C° 0.2 mm 0 mps 636 mmHg 84%
    02:00 +17°C° 0.2 mm 0 mps 636 mmHg 85%
    03:00 +17°C° 0.2 mm 0 mps 636 mmHg 86%
    04:00 +17°C° 0.1 mm 0 mps 636 mmHg 86%
    05:00 +17°C° 0.1 mm 0 mps 636 mmHg 87%
    06:00 +17°C° 0.1 mm 0 mps 636 mmHg 87%
    07:00 +19°C° 0 mm 0 mps 637 mmHg 78%
    08:00 +21°C° 0 mm 0 mps 638 mmHg 69%
    09:00 +23°C° 0 mm 0 mps 639 mmHg 60%
    10:00 +27°C° 0 mm 1 mps 639 mmHg 54%
    11:00 +28°C° 0 mm 1 mps 639 mmHg 48%
    12:00 +30°C° 0 mm 1 mps 639 mmHg 42%
    13:00 +29°C° 0.3 mm 1 mps 638 mmHg 43%
    14:00 +29°C° 0.3 mm 1 mps 638 mmHg 44%
    15:00 +29°C° 0.3 mm 1 mps 637 mmHg 44%
    16:00 +27°C° 0.4 mm 1 mps 637 mmHg 50%
    17:00 +26°C° 0.4 mm 1 mps 636 mmHg 56%
    18:00 +24°C° 0.4 mm 1 mps 636 mmHg 62%
    19:00 +23°C° 0.4 mm 1 mps 636 mmHg 68%
    20:00 +22°C° 0.4 mm 1 mps 637 mmHg 74%
    21:00 +21°C° 0.4 mm 1 mps 637 mmHg 80%
    22:00 +20°C° 0.4 mm 1 mps 637 mmHg 81%
    23:00 +20°C° 0.4 mm 1 mps 637 mmHg 82%

    Day after tomorrow, 25 May, Friday

    Time Temperature Precipitation Wind Pressure Humidity
    00:00 +20°C° 0.4 mm 1 mps 637 mmHg 83%
    01:00 +17°C° 0.2 mm 0 mps 636 mmHg 84%
    02:00 +17°C° 0.2 mm 0 mps 636 mmHg 85%
    03:00 +17°C° 0.2 mm 0 mps 635 mmHg 85%
    04:00 +17°C° 0 mm 0 mps 635 mmHg 86%
    05:00 +16°C° 0 mm 0 mps 635 mmHg 86%
    06:00 +16°C° 0 mm 0 mps 635 mmHg 87%
    07:00 +18°C° 0 mm 0 mps 636 mmHg 77%
    08:00 +23°C° 0 mm 1 mps 636 mmHg 67%
    09:00 +25°C° 0 mm 1 mps 637 mmHg 57%
    10:00 +27°C° 0 mm 1 mps 638 mmHg 49%
    11:00 +28°C° 0 mm 1 mps 638 mmHg 42%
    12:00 +30°C° 0 mm 1 mps 638 mmHg 35%
    13:00 +30°C° 0 mm 1 mps 637 mmHg 36%
    14:00 +29°C° 0 mm 1 mps 636 mmHg 38%
    15:00 +28°C° 0 mm 2 mps 636 mmHg 39%
    16:00 +27°C° 0.1 mm 1 mps 635 mmHg 46%
    17:00 +26°C° 0.1 mm 1 mps 635 mmHg 52%
    18:00 +24°C° 0.1 mm 1 mps 635 mmHg 58%
    19:00 +23°C° 0.2 mm 1 mps 635 mmHg 64%
    20:00 +22°C° 0.2 mm 1 mps 635 mmHg 71%
    21:00 +20°C° 0.2 mm 1 mps 635 mmHg 77%
    22:00 +20°C° 0 mm 1 mps 635 mmHg 78%
    23:00 +20°C° 0 mm 1 mps 635 mmHg 80%

    26 May, Saturday

    Time Temperature Precipitation Wind Pressure Humidity
    00:00 +17°C° 0 mm 0 mps 635 mmHg 81%
    01:00 +17°C° 0 mm 0 mps 635 mmHg 83%
    02:00 +17°C° 0 mm 0 mps 634 mmHg 84%
    03:00 +16°C° 0 mm 0 mps 633 mmHg 86%
    04:00 +16°C° 0 mm 0 mps 633 mmHg 87%
    05:00 +16°C° 0 mm 0 mps 634 mmHg 88%
    06:00 +16°C° 0 mm 0 mps 634 mmHg 88%
    07:00 +18°C° 0 mm 0 mps 635 mmHg 77%
    08:00 +21°C° 0 mm 0 mps 636 mmHg 65%
    09:00 +26°C° 0 mm 1 mps 637 mmHg 54%
    10:00 +27°C° 0 mm 1 mps 637 mmHg 49%
    11:00 +28°C° 0 mm 1 mps 637 mmHg 45%
    12:00 +29°C° 0 mm 1 mps 637 mmHg 41%
    13:00 +29°C° 0.1 mm 1 mps 636 mmHg 43%
    14:00 +28°C° 0.1 mm 1 mps 635 mmHg 46%
    15:00 +27°C° 0.1 mm 2 mps 635 mmHg 48%
    16:00 +26°C° 0.2 mm 1 mps 634 mmHg 53%
    17:00 +25°C° 0.2 mm 1 mps 634 mmHg 59%
    18:00 +24°C° 0.2 mm 1 mps 634 mmHg 65%
    19:00 +22°C° 0.1 mm 1 mps 634 mmHg 69%
    20:00 +21°C° 0.1 mm 1 mps 634 mmHg 74%
    21:00 +20°C° 0.1 mm 1 mps 635 mmHg 78%
    22:00 +19°C° 0 mm 1 mps 634 mmHg 80%
    23:00 +19°C° 0 mm 1 mps 634 mmHg 81%

    27 May, Sunday

    Time Temperature Precipitation Wind Pressure Humidity
    00:00 +18°C° 0 mm 1 mps 634 mmHg 82%
    01:00 +18°C° 0 mm 1 mps 634 mmHg 82%
    02:00 +16°C° 0 mm 1 mps 633 mmHg 82%
    03:00 +16°C° 0 mm 1 mps 633 mmHg 82%
    04:00 +16°C° 0 mm 1 mps 633 mmHg 81%
    05:00 +15°C° 0 mm 1 mps 633 mmHg 80%
    06:00 +15°C° 0 mm 1 mps 633 mmHg 79%
    07:00 +19°C° 0 mm 1 mps 634 mmHg 67%
    08:00 +23°C° 0 mm 1 mps 636 mmHg 56%
    09:00 +24°C° 0 mm 0 mps 637 mmHg 44%
    10:00 +28°C° 0 mm 1 mps 637 mmHg 38%
    11:00 +29°C° 0 mm 1 mps 637 mmHg 33%
    12:00 +31°C° 0 mm 1 mps 637 mmHg 27%
    13:00 +31°C° 0 mm 1 mps 637 mmHg 27%
    14:00 +31°C° 0 mm 2 mps 636 mmHg 26%
    15:00 +31°C° 0 mm 2 mps 636 mmHg 26%
    16:00 +29°C° 0 mm 1 mps 635 mmHg 34%
    17:00 +27°C° 0 mm 1 mps 635 mmHg 41%
    18:00 +25°C° 0 mm 1 mps 635 mmHg 49%
    19:00 +23°C° 0.1 mm 1 mps 635 mmHg 55%
    20:00 +22°C° 0.1 mm 1 mps 635 mmHg 62%
    21:00 +20°C° 0.1 mm 1 mps 635 mmHg 69%
    22:00 +20°C° 0 mm 1 mps 635 mmHg 72%
    23:00 +19°C° 0 mm 1 mps 635 mmHg 75%

    28 May, Monday

    Time Temperature Precipitation Wind Pressure Humidity
    00:00 +19°C° 0 mm 1 mps 635 mmHg 77%
    01:00 +18°C° 0 mm 1 mps 634 mmHg 78%
    02:00 +18°C° 0 mm 1 mps 634 mmHg 80%
    03:00 +16°C° 0 mm 1 mps 633 mmHg 81%
    04:00 +16°C° 0 mm 1 mps 633 mmHg 80%
    05:00 +16°C° 0 mm 1 mps 633 mmHg 79%
    06:00 +16°C° 0 mm 1 mps 633 mmHg 78%
    07:00 +20°C° 0 mm 1 mps 635 mmHg 65%
    08:00 +21°C° 0 mm 0 mps 636 mmHg 52%
    09:00 +25°C° 0 mm 0 mps 637 mmHg 38%
    10:00 +28°C° 0 mm 1 mps 637 mmHg 34%
    11:00 +30°C° 0 mm 1 mps 638 mmHg 30%
    12:00 +32°C° 0 mm 1 mps 638 mmHg 26%
    13:00 +31°C° 0 mm 1 mps 637 mmHg 28%
    14:00 +31°C° 0 mm 1 mps 636 mmHg 29%
    15:00 +30°C° 0 mm 1 mps 636 mmHg 31%
    16:00 +29°C° 0 mm 1 mps 635 mmHg 37%
    17:00 +27°C° 0 mm 1 mps 635 mmHg 44%
    18:00 +25°C° 0 mm 1 mps 634 mmHg 50%
    19:00 +24°C° 0.1 mm 1 mps 635 mmHg 55%
    20:00 +23°C° 0.1 mm 1 mps 635 mmHg 59%
    21:00 +20°C° 0.1 mm 0 mps 635 mmHg 64%
    22:00 +19°C° 0.1 mm 0 mps 635 mmHg 66%
    23:00 +19°C° 0.1 mm 0 mps 635 mmHg 68%
    Show more